[[{"header":{"parameterUnit":"m.s-1","parameterCategory":1,"la1":30.2991,"la2":30.254,"lo1":-89.0895,"lo2":-89.0444,"dy":0.0017,"dx":0.0017,"nx":28,"ny":28,"refTime":"2024-03-08T03:00:00:Z","depth":0,"parameterNumber":2,"parameterNumberName":"U-component_of_WINDS"},"data":[0,0,0,0,0,0,0,0,0,0,0,0,0,0,0,0,0,0,0,0,0,0,0,0,0,0,0,0,0,0,0,0,0,0,0,0,0,0,0,0,0,0,0,0,0,0,0,0,0,0,0,0,0,0,0,0,0,0,-5.2027,-5.2028,0,-5.219,-5.2192,-5.2194,-5.2247,-5.2246,-5.2245,-5.2245,-5.2412,-5.2417,-5.2422,0,0,0,0,0,0,0,0,0,0,0,0,0,-5.176,-5.1765,-5.2027,-5.2029,-5.2031,-5.219,-5.2192,-5.2194,-5.2247,-5.2246,-5.2245,-5.2244,-5.241,-5.2416,-5.2422,0,0,0,0,0,0,0,0,0,0,0,0,0,-5.1895,-5.1766,-5.2026,-5.2076,-5.2082,-5.2189,-5.2192,-5.2195,-5.2247,-5.2246,-5.2245,-5.2244,-5.2408,-5.2416,-5.2423,-5.2493,0,0,-5.2447,-5.245,0,0,0,0,0,0,0,0,-5.1887,-5.1905,-5.2067,-5.2073,-5.208,-5.2197,-5.216,-5.2295,-5.2247,-5.2184,-5.2245,-5.2243,-5.2341,-5.2354,-5.2387,-5.25,-5.2508,-5.2447,-5.2452,-5.2455,-5.2457,0,0,0,0,0,0,0,-5.1878,-5.1898,-5.2091,-5.2069,-5.2077,-5.209,-5.2108,-5.2185,-5.2267,-5.219,-5.2194,-5.2213,-5.2345,-5.238,-5.2392,-5.251,-5.2447,-5.2454,-5.2459,-5.2462,-5.2689,-5.269,0,0,0,0,0,0,-5.186,-5.189,-5.2086,-5.2096,-5.1979,-5.2096,-5.2116,-5.216,-5.2266,-5.2281,-5.2213,-5.2215,-5.2367,-5.2383,-5.2398,-5.2486,-5.2455,-5.2462,-5.2467,-5.2687,-5.2689,-5.269,0,0,0,0,0,0,-5.1854,-5.1877,-5.208,-5.1994,-5.2021,-5.2102,-5.2151,-5.2164,-5.22,-5.2284,-5.2299,-5.2234,-5.2367,-5.2387,-5.2469,-5.2492,-5.2466,-5.2473,-5.2686,-5.2688,-5.269,-5.2662,0,0,0,0,0,0,-5.1846,-5.1875,-5.1902,-5.1994,-5.2025,-5.2147,-5.2153,-5.2168,-5.2213,-5.2216,-5.2308,-5.2322,-5.2368,-5.2457,-5.2476,-5.2502,-5.2479,-5.2684,-5.2687,-5.2689,-5.2661,-5.2663,-5.2664,0,0,0,0,0,-5.1837,-5.1887,-5.1903,-5.1926,-5.2061,-5.2149,-5.2166,-5.2218,-5.2214,-5.2242,-5.2297,-5.2319,-5.2487,-5.2465,-5.2487,-5.2516,-5.2682,-5.2686,-5.2689,-5.266,-5.2662,-5.2664,0,0,0,0,0,0,-5.1794,-5.19,-5.1918,-5.2001,-5.2065,-5.2157,-5.2194,-5.2218,-5.2285,-5.2285,-5.2347,-5.2367,-5.2444,-5.2489,-5.2462,-5.2589,-5.2586,-5.2593,-5.2556,-5.2559,-5.2561,-5.2547,-5.2485,0,0,0,0,0,-5.1795,-5.1857,-5.1946,-5.201,-5.2042,-5.2112,-5.2152,-5.2187,-5.2256,-5.2283,-5.2344,-5.241,-5.2478,-5.2521,-5.2589,-5.2668,-5.2689,-5.2699,-5.2701,-5.2702,-5.2707,-5.2752,-5.2758,-5.2701,-5.2701,-5.2701,0,0,-5.1796,-5.1861,-5.1897,-5.2003,-5.2057,-5.2121,-5.2135,-5.2201,-5.2248,-5.2294,-5.2374,-5.2421,-5.2499,-5.258,-5.2619,-5.262,-5.2728,-5.2706,-5.2706,-5.2711,-5.2756,-5.2761,-5.2766,-5.2703,-5.2703,-5.2702,0,0,-5.183,-5.1886,-5.1945,-5.1999,-5.2081,-5.2128,-5.2142,-5.2231,-5.2264,-5.2346,-5.2381,-5.2439,-5.2555,-5.2609,-5.2651,-5.2707,-5.273,-5.2728,-5.2735,-5.2779,-5.2783,-5.2787,-5.2806,-5.2813,-5.2733,-5.2733,-5.2733,0,-5.1821,-5.1917,-5.1972,-5.2037,-5.2082,-5.2127,-5.2187,-5.2238,-5.2337,-5.2367,-5.2367,-5.2514,-5.257,-5.2663,-5.2677,-5.2711,-5.2729,-5.2716,-5.2778,-5.2783,-5.2788,-5.2807,-5.2814,-5.2732,-5.2732,-5.2733,-5.2733,0,-5.1901,-5.1968,-5.2006,-5.2101,-5.2151,-5.2213,-5.2278,-5.2322,-5.2353,-5.24,-5.2483,-5.2552,-5.2634,-5.2659,-5.2689,-5.2758,-5.2756,-5.2766,-5.2764,-5.2791,-5.281,-5.2818,-5.2731,-5.2731,-5.2732,-5.2732,0,0,-5.1911,-5.2037,-5.205,-5.2093,-5.2188,-5.224,-5.2305,-5.2385,-5.2421,-5.2489,-5.2544,-5.2642,-5.2652,-5.2701,-5.2738,-5.2776,-5.2815,-5.2783,-5.2785,-5.2785,-5.2894,-5.2884,-5.2892,-5.2832,-5.2834,-5.2835,-5.2887,0,-5.1956,-5.2072,-5.2125,-5.2217,-5.2279,-5.2324,-5.238,-5.2444,-5.249,-5.2549,-5.26,-5.2668,-5.2677,-5.2707,-5.2747,-5.2802,-5.2838,-5.2799,-5.2883,-5.2886,-5.286,-5.2902,-5.2891,-5.2937,-5.2895,-5.2896,-5.2897,0,-5.2023,-5.2091,-5.219,-5.2277,-5.2305,-5.2354,-5.2432,-5.2489,-5.2563,-5.2593,-5.2648,-5.2684,-5.2754,-5.2749,-5.2845,-5.2818,-5.2856,-5.2888,-5.2891,-5.29,-5.2891,-5.2909,-5.2953,-5.2959,-5.2909,-5.2908,-5.2908,0,-5.2019,-5.2135,-5.2209,-5.2245,-5.2349,-5.2383,-5.2428,-5.2501,-5.2546,-5.2614,-5.2644,-5.272,-5.2761,-5.2819,-5.2874,-5.2866,-5.2966,-5.2965,-5.2993,-5.2991,-5.301,-5.3007,-5.3058,-5.3037,-5.3037,-5.3037,-5.3037,0,-5.2062,-5.2121,-5.2208,-5.2254,-5.2321,-5.2381,-5.2446,-5.2494,-5.2559,-5.2614,-5.2658,-5.2709,-5.278,-5.2841,-5.2885,-5.2958,-5.2977,-5.3004,-5.3014,-5.2999,-5.2995,-5.3023,-5.302,-5.3039,-5.3038,-5.3038,-5.3038,0,-5.2067,-5.2129,-5.2212,-5.2304,-5.2329,-5.2374,-5.2453,-5.2499,-5.2547,-5.2617,-5.2637,-5.2714,-5.2787,-5.2849,-5.2946,-5.2976,-5.3051,-5.3065,-5.3026,-5.3031,-5.3055,-5.3051,-5.3124,-5.3136,-5.3107,-5.3108,-5.3108,0,-5.209,-5.2136,-5.2233,-5.2273,-5.2318,-5.2382,-5.2429,-5.249,-5.2537,-5.2625,-5.266,-5.2737,-5.2801,-5.2917,-5.2981,-5.3056,-5.3071,-5.3091,-5.3082,-5.3065,-5.3069,-5.3065,-5.307,-5.3091,-5.3091,-5.3091,-5.3091,0,-5.2124,-5.2152,-5.2217,-5.2292,-5.2346,-5.2409,-5.2473,-5.2503,-5.2577,-5.2627,-5.2703,-5.2753,-5.2852,-5.2928,-5.3009,-5.3056,-5.3086,-5.3094,-5.3104,-5.3087,-5.3062,-5.3075,-5.3026,-5.3091,-5.3091,-5.3091,-5.3091,-5.3091,-5.2138,-5.218,-5.2255,-5.2326,-5.2381,-5.244,-5.2487,-5.2542,-5.2606,-5.2691,-5.2724,-5.2802,-5.2876,-5.2988,-5.3035,-5.3097,-5.3101,-5.3116,-5.3119,-5.3122,-5.3119,-5.3054,-5.3112,-5.3113,-5.3113,-5.3113,-5.3113,0,-5.2172,-5.2223,-5.2288,-5.2375,-5.2431,-5.2455,-5.2527,-5.2572,-5.2639,-5.2706,-5.2769,-5.2856,-5.293,-5.3001,-5.3078,-5.3114,-5.3129,-5.3132,-5.3129,-5.3139,-5.3111,-5.3094,-5.3118,-5.3118,-5.3118,-5.3118,-5.3118,-5.3118,-5.2197,-5.227,-5.2307,-5.2408,-5.2459,-5.2535,-5.2574,-5.2628,-5.2682,-5.2777,-5.2838,-5.2884,-5.2953,-5.3036,-5.3105,-5.3124,-5.315,-5.3149,-5.3171,-5.3143,-5.3141,-5.314,-5.3124,-5.3154,-5.3154,-5.3194,-5.3194,-5.3194]},{"header":{"parameterUnit":"m.s-1","parameterCategory":1,"la1":30.2991,"la2":30.254,"lo1":-89.0895,"lo2":-89.0444,"dy":0.0017,"dx":0.0017,"nx":28,"ny":28,"refTime":"2024-03-08T03:00:00:Z","depth":0,"parameterNumber":3,"parameterNumberName":"V-component_of_WINDS"},"data":[0,0,0,0,0,0,0,0,0,0,0,0,0,0,0,0,0,0,0,0,0,0,0,0,0,0,0,0,0,0,0,0,0,0,0,0,0,0,0,0,0,0,0,0,0,0,0,0,0,0,0,0,0,0,0,0,0,0,4.8573,4.8573,0,4.861,4.8611,4.8611,4.8593,4.8592,4.8591,4.8591,4.8627,4.8629,4.8631,0,0,0,0,0,0,0,0,0,0,0,0,0,4.8488,4.8489,4.8573,4.8573,4.8574,4.861,4.8611,4.8611,4.8593,4.8592,4.8591,4.859,4.8627,4.8629,4.8631,0,0,0,0,0,0,0,0,0,0,0,0,0,4.8525,4.849,4.8573,4.8569,4.8569,4.861,4.8611,4.8611,4.8594,4.8592,4.8591,4.859,4.8626,4.8629,4.8632,4.8677,0,0,4.864,4.8641,0,0,0,0,0,0,0,0,4.8523,4.8528,4.8569,4.857,4.857,4.8596,4.8594,4.8633,4.8594,4.8584,4.8591,4.8589,4.8618,4.8621,4.8631,4.8679,4.868,4.864,4.8642,4.8643,4.8644,0,0,0,0,0,0,0,4.852,4.8526,4.8587,4.857,4.857,4.8566,4.857,4.8601,4.8609,4.8585,4.8584,4.8589,4.8618,4.8629,4.8632,4.8681,4.864,4.8643,4.8645,4.8646,4.8772,4.8774,0,0,0,0,0,0,4.8518,4.8524,4.8586,4.8589,4.8542,4.8569,4.8573,4.8589,4.8608,4.861,4.859,4.8588,4.8625,4.8629,4.8633,4.8691,4.8643,4.8646,4.8647,4.8771,4.8773,4.8774,0,0,0,0,0,0,4.8516,4.8523,4.8585,4.8556,4.8564,4.8572,4.859,4.859,4.8601,4.8612,4.8613,4.86,4.8624,4.8629,4.8668,4.8692,4.8647,4.865,4.8769,4.8771,4.8774,4.8805,0,0,0,0,0,0,4.8513,4.8523,4.8539,4.8557,4.8565,4.8618,4.8591,4.8592,4.8606,4.8604,4.8621,4.8623,4.8623,4.8663,4.867,4.8695,4.8652,4.8766,4.877,4.8773,4.8802,4.8808,4.8814,0,0,0,0,0,4.851,4.8546,4.854,4.8548,4.8586,4.8619,4.8624,4.8624,4.8608,4.8626,4.8633,4.8622,4.8688,4.8667,4.8675,4.8701,4.8765,4.8769,4.8773,4.8799,4.8807,4.8814,0,0,0,0,0,0,4.853,4.8548,4.8542,4.8584,4.86,4.8616,4.8638,4.8632,4.8653,4.8649,4.8648,4.8652,4.8692,4.87,4.8677,4.8748,4.8724,4.873,4.8742,4.8749,4.8755,4.8753,4.8654,0,0,0,0,0,4.8539,4.8564,4.8578,4.8614,4.8623,4.8629,4.8643,4.8642,4.8659,4.8666,4.8676,4.8693,4.8717,4.8733,4.8756,4.8803,4.8808,4.8825,4.883,4.8835,4.8841,4.8869,4.8878,4.8787,4.8787,4.8787,0,0,4.8558,4.8571,4.8586,4.8618,4.8631,4.8658,4.8635,4.8663,4.8684,4.867,4.8708,4.8716,4.8734,4.8778,4.8797,4.8786,4.8867,4.884,4.8844,4.8847,4.8874,4.8883,4.889,4.879,4.8789,4.8789,0,0,4.8607,4.8618,4.8651,4.8665,4.8685,4.869,4.8698,4.8716,4.8721,4.8759,4.875,4.8775,4.8816,4.8832,4.8844,4.8904,4.8896,4.8911,4.8943,4.8971,4.8978,4.8984,4.9008,4.9016,4.8916,4.8916,4.8916,0,4.8628,4.8668,4.8668,4.8699,4.8715,4.8705,4.8739,4.8752,4.8779,4.879,4.8776,4.8832,4.8843,4.8892,4.8907,4.8917,4.8927,4.8909,4.8977,4.8983,4.8989,4.9012,4.9021,4.8918,4.8918,4.8918,4.8917,0,4.8695,4.8723,4.8747,4.8776,4.8793,4.8826,4.8832,4.885,4.8848,4.8855,4.8895,4.8909,4.8937,4.8948,4.8945,4.8997,4.899,4.8977,4.8953,4.9,4.9022,4.903,4.8921,4.892,4.892,4.8919,0,0,4.8756,4.8786,4.8795,4.8809,4.8833,4.8855,4.8888,4.8916,4.8933,4.8952,4.8981,4.9019,4.9008,4.9023,4.9022,4.9047,4.9097,4.9031,4.9031,4.9045,4.9159,4.917,4.918,4.9091,4.9093,4.9094,4.9158,0,4.8809,4.8867,4.887,4.8923,4.8951,4.8944,4.8973,4.8991,4.8999,4.9024,4.9032,4.9061,4.9042,4.9052,4.9076,4.9085,4.912,4.9081,4.912,4.9121,4.9117,4.9191,4.9202,4.9261,4.9166,4.9167,4.9168,0,4.8878,4.8902,4.8959,4.8982,4.8994,4.902,4.9048,4.9072,4.9093,4.9097,4.9116,4.9113,4.9148,4.9123,4.9173,4.9146,4.9162,4.917,4.9172,4.9177,4.9149,4.92,4.928,4.929,4.9181,4.918,4.9179,0,4.892,4.8966,4.9008,4.902,4.9046,4.9066,4.9078,4.9098,4.9116,4.914,4.9153,4.918,4.9196,4.9218,4.9223,4.9204,4.9274,4.9248,4.928,4.9281,4.9296,4.9296,4.9383,4.9303,4.9303,4.9303,4.9303,0,4.898,4.9016,4.9028,4.9053,4.9094,4.9097,4.9138,4.9148,4.9167,4.9195,4.919,4.9216,4.9221,4.9249,4.9253,4.9295,4.9302,4.9307,4.9308,4.9309,4.9309,4.9321,4.9318,4.9306,4.9305,4.9305,4.9304,0,4.9035,4.9044,4.9089,4.9112,4.9118,4.9148,4.9168,4.9193,4.9201,4.9237,4.9246,4.9259,4.9292,4.9299,4.9337,4.9341,4.9392,4.9388,4.9386,4.9386,4.9419,4.9417,4.9518,4.9533,4.9442,4.9443,4.9443,0,4.9073,4.9101,4.9128,4.9148,4.9161,4.9192,4.9211,4.9216,4.9236,4.9265,4.9288,4.932,4.9347,4.9401,4.9414,4.9444,4.9442,4.9476,4.9447,4.9448,4.9446,4.9445,4.945,4.9482,4.9483,4.9484,4.9484,0,4.9142,4.9146,4.9175,4.9206,4.923,4.9254,4.9277,4.9293,4.9301,4.9325,4.936,4.9381,4.9422,4.9456,4.9487,4.95,4.9495,4.9493,4.9503,4.9505,4.9504,4.9508,4.9403,4.9491,4.949,4.949,4.949,4.9489,4.9192,4.9218,4.9242,4.9275,4.9294,4.9316,4.9342,4.9355,4.9384,4.9419,4.942,4.9459,4.9482,4.9524,4.9539,4.9571,4.956,4.9573,4.9577,4.9581,4.9585,4.9497,4.9576,4.9576,4.9575,4.9575,4.9575,0,4.9263,4.9279,4.9309,4.9344,4.937,4.9363,4.9389,4.9412,4.9447,4.9469,4.9497,4.9539,4.9572,4.9589,4.9622,4.9644,4.9643,4.9653,4.9653,4.9656,4.9591,4.9581,4.9654,4.9654,4.9654,4.9654,4.9654,4.9654,4.9304,4.9349,4.9356,4.9411,4.9426,4.9465,4.9481,4.9503,4.9522,4.9569,4.9597,4.9608,4.963,4.9665,4.9696,4.97,4.9714,4.9726,4.973,4.9668,4.966,4.9653,4.9643,4.9729,4.9729,4.9793,4.9793,4.9794]}]]